This is the latest recevied weather packets stored in our database for station/object F4NFR-13. If no packets are shown the sender has not sent any weather packets the latest 1 day(s).
| Time | Temp. | Humidity | Pressure | Rain* | Wind** | Luminosity | Snow |
|---|---|---|---|---|---|---|---|
| 1777990805 | 13.89° C | 59% | 1012 hPa | 0 mm | 5.81 m/s, 34° | 289 W/m² | - |
| 1777990503 | 13.89° C | 54% | 1012 hPa | 0 mm | 4.92 m/s, 74° | 289 W/m² | - |
| 1777990200 | 13.89° C | 54% | 1012 hPa | 0 mm | 5.81 m/s, 61° | 318 W/m² | - |
| 1777989898 | 15° C | 57% | 1012 hPa | 0 mm | 3.58 m/s, 33° | 0 W/m² | - |
| 1777989596 | 15° C | 55% | 1012 hPa | 0 mm | 4.02 m/s, 43° | 0 W/m² | - |
| 1777989293 | 15° C | 50% | 1012 hPa | 0 mm | 6.26 m/s, 45° | 0 W/m² | - |
| 1777988688 | 15° C | 49% | 1012 hPa | 0 mm | 5.36 m/s, 15° | - | - |
| 1777988387 | 15° C | 46% | 1012 hPa | 0 mm | 7.6 m/s, 48° | - | - |
| 1777987782 | 15° C | 54% | 1012 hPa | 0 mm | 4.02 m/s, 31° | 0 W/m² | - |
| 1777987479 | 15° C | 58% | 1012 hPa | 0 mm | 4.02 m/s, 41° | 73 W/m² | - |
| 1777987177 | 15° C | 60% | 1012 hPa | 0 mm | 3.58 m/s, 14° | 0 W/m² | - |
| 1777986874 | 15° C | 59% | 1012 hPa | 0 mm | 4.47 m/s, 23° | 0 W/m² | - |
| 1777986572 | 15° C | 59% | 1012 hPa | 0 mm | 4.02 m/s, 38° | 0 W/m² | - |
| 1777985967 | 15° C | 62% | 1012 hPa | 0 mm | 2.68 m/s, 41° | 150 W/m² | - |
| 1777985664 | 15° C | 62% | 1012.3 hPa | 0 mm | 4.92 m/s, 50° | 0 W/m² | - |
| 1777985362 | 15° C | 62% | 1012.3 hPa | 0 mm | 3.13 m/s, 35° | 0 W/m² | - |
| 1777985059 | 15° C | 60% | 1012.3 hPa | 0 mm | 4.92 m/s, 25° | 155 W/m² | - |
| 1777984757 | 15° C | 64% | 1012.3 hPa | 0 mm | 2.24 m/s, 42° | 0 W/m² | - |
| 1777984455 | 15° C | 63% | 1012.3 hPa | 0 mm | 4.02 m/s, 44° | 211 W/m² | - |
| 1777984152 | 15° C | 63% | 1012.3 hPa | 0 mm | 4.92 m/s, 28° | 274 W/m² | - |
| 1777983850 | 16.11° C | 62% | 1012.3 hPa | 0 mm | 2.68 m/s, 48° | 162 W/m² | - |
| 1777983245 | 15° C | 63% | 1012.3 hPa | 0 mm | 6.26 m/s, 47° | 153 W/m² | - |
| 1777982943 | 15° C | 64% | 1012.3 hPa | 0 mm | 4.92 m/s, 33° | 0 W/m² | - |
| 1777982641 | 15° C | 64% | 1012.3 hPa | 0 mm | 4.92 m/s, 30° | 26 W/m² | - |
| 1777982339 | 15° C | 63% | 1012.3 hPa | 0 mm | 4.47 m/s, 46° | - | - |
* Rain latest hour (hover to see other rain measurements)
** Current wind speed in m/s (hover to see current wind gust speed)